Regional Weather Roundup
Issued by NWS Sioux Falls, SD

Home | Current Version | Previous Version | Text Only | Print | Product List | Glossary On
Versions: 1 2 3 4 5 6 7 8 9 10 11 12 13 14 15 16 17 18 19 20 21 22 23 24 25 26 27 28 29 30 31 32 33 34 35 36 37 38 39 40 41 42 43 44 45 46 47 48 49 50
175
ASUS43 KFSD 240302
RWRFSD

WEATHER ROUNDUP FOR SE SOUTH DAKOTA/SW MINNESOTA/NW IOWA
NATIONAL WEATHER SERVICE SIOUX FALLS SD
1000 PM CDT SUN JUL 23 2017

NOTE: "FAIR" INDICATES FEW OR NO CLOUDS BELOW 12,000 FEET WITH NO
SIGNIFICANT WEATHER AND OR OBSTRUCTIONS TO VISIBILITY.


SDZ038>040-050-052>070-240400-
SOUTHEAST SOUTH DAKOTA

CITY           SKY/WX    TMP DP  RH WIND       PRES   REMARKS
BROOKINGS      CLEAR     68  58  70 E7        30.03R
CHAMBERLAIN    NOT AVBL
HURON          CLEAR     72  63  73 E3        30.00R
MADISON        FAIR      63  63 100 E7        30.03R
MITCHELL       CLEAR     70  62  76 E5        30.00R
SIOUX FALLS    CLEAR     69  61  75 NE8       30.01R
WINNER         FAIR      76  55  48 SE10      29.99R
YANKTON        CLEAR     69  61  75 NE6       29.99R
$$

MNZ071-072-080-081-089-090-097-098-240400-
SOUTHWEST MINNESOTA

CITY           SKY/WX    TMP DP  RH WIND       PRES   REMARKS
FAIRMONT       CLEAR     65  62  90 N5        29.99S
JACKSON        CLEAR     63  59  88 CALM      30.01S
LUVERNE        CLEAR     64  55  72 NE3       30.02R
MARSHALL       CLEAR     65  62  90 NW5       30.02R
MONTEVIDEO     PTCLDY    66  55  68 CALM      30.01R
PIPESTONE      CLEAR     66  59  77 CALM      30.03R
REDWOOD FALLS  PTCLDY    69  60  73 N3        29.99R
WINDOM         CLEAR     63  59  88 NW3       30.02R
WORTHINGTON    CLEAR     63  59  87 N6        30.02R
$$

IAZ001>003-012>014-020>022-031-032-NEZ013-014-SDZ071-240400-
NORTHWEST IOWA

CITY           SKY/WX    TMP DP  RH WIND       PRES   REMARKS
CHEROKEE       CLEAR     67  60  78 CALM      30.00R
DENISON        CLEAR     70  61  73 NE9       30.00R
ESTHERVILLE    CLEAR     62  61  96 N5        29.99R
ORANGE CITY    CLEAR     68  61  77 E3        30.01R
SHELDON        CLEAR     63  61  94 NE6       30.00R
SIOUX CITY     CLEAR     74  62  66 NE12      29.98R
SPENCER        CLEAR     65  59  81 N6        30.00R
STORM LAKE     CLEAR     66  59  77 NE8       30.00R
$$

ABBREVIATIONS USED IN REMARKS
   TC - TEMPERATURE IN CELSIUS
  WCI - WIND CHILL INDEX
   HX - HEAT INDEX
  VSB - VISIBILITY





USA.gov is the U.S. government's official web portal to all federal, state and local government web resources and services.